Flag for United Kingdom Weather past 2 weeks in Carlisle, England, United Kingdom

Now
40 °F

Quite cool.


Feels Like: N/A
Forecast: 37 / 64 °F
Wind: N/A

Location: Carlisle

Current Time: Apr 21, 2015 at 8:42:28 AM

Latest Report: Apr 21, 2015 at 8:00 AM


Visibility: 14 mi

Pressure: 30.62 "Hg

Humidity: 81%

Dew point: 35 °F

Location of CarlisleLocation

Historic Weather in Carlisle — Graph

°F

Carlisle temperature yesterday

Maximum temperature yesterday: 58 °F (at 5:00 PM)
Minimum temperature yesterday: 41 °F (at 7:00 AM)
Average temperature yesterday: 49 °F

Past Weeks' High & Low Weather Summary

 TemperatureHumidityPressure
High67 °F (Apr 10, 4:00 PM)100% (Apr 6, 7:00 AM)30.63 "Hg (Apr 6, 7:00 AM)
Low33 °F (Apr 16, 7:00 AM)31% (Apr 10, 4:00 PM)29.63 "Hg (Apr 11, 5:00 AM)
Average47 °F78%30.26 "Hg
* Reported Apr 6 7:00 AM — Apr 21 7:00 AM, Carlisle, Weather by CustomWeather, © 2015

Note: Actual official high and low records may vary slightly from our data, if they occured in-between our weather recording intervals... More about our weather records

Advertising

Carlisle weather history for previous 24 hours

 ConditionsComfort  
Time TempWeatherWind HumidityBarometerVisibility
7:00 AM
Tue, Apr 21
35 °FChilly.N/A92%30.61 "Hg14 mi
6:00 AM35 °FChilly.N/A91%30.60 "Hg11 mi
5:00 AM36 °FChilly.N/A91%30.58 "Hg12 mi
4:00 AM36 °FChilly.N/A92%30.58 "Hg10 mi
3:00 AM37 °FChilly.N/A90%30.58 "Hg11 mi
2:00 AM39 °FChilly.N/A87%30.57 "Hg14 mi
1:00 AM41 °FQuite cool.N/A84%30.56 "Hg16 mi
12:00 AM42 °FQuite cool.N/A81%30.56 "Hg17 mi
11:00 PM
Mon, Apr 20
43 °FQuite cool.N/A78%30.56 "Hg19 mi
10:00 PM45 °FCool.N/A73%30.55 "Hg17 mi
9:00 PM48 °FCool.N/A68%30.54 "Hg22 mi
8:00 PM51 °FCool.N/A67%30.52 "Hg19 mi
7:00 PM54 °FCool.N/A54%30.50 "Hg34 mi
6:00 PM56 °FRefreshingly cool.N/A48%30.48 "Hg34 mi
5:00 PM58 °FRefreshingly cool.N/A53%30.48 "Hg28 mi
4:00 PM57 °FRefreshingly cool.N/A49%30.48 "Hg25 mi
3:00 PM56 °FRefreshingly cool.N/A53%30.49 "Hg25 mi
2:00 PM56 °FRefreshingly cool.N/A53%30.50 "Hg25 mi
1:00 PM53 °FCool.N/A60%30.49 "Hg25 mi
12:00 PM53 °FCool.N/A57%30.49 "Hg28 mi
11:00 AM51 °FCool.N/A60%30.48 "Hg25 mi
10:00 AM49 °FCool.N/A66%30.47 "Hg19 mi
9:00 AM47 °FCool.N/A76%30.45 "Hg18 mi
8:00 AM44 °FQuite cool.N/A84%30.44 "Hg12 mi
Weather by CustomWeather, © 2015

See weather overviewHow to use our weather pages